Location: *
(45.8589°N, 4.7139°E)
Time: 08:20:03
(UTC+00:00)

Cosmos 1892 - Pass Details

Date: 09 April 2020
Orbit: 503 x 526 km, 82.5° (Epoch: 04 June)

Event Time Altitude Azimuth Distance (km) Brightness Sun altitude
Rises 19:56:47 0° 360° (N) 2,673 6.8 -16.4°
Reaches altitude 10° 19:59:07 10° 10° (N) 1,779 5.7 -16.7°
Maximum altitude 20:02:38 31° 74° (ENE) 934 3.6 -17.2°
Enters shadow 20:02:53 31° 82° (E) 939 3.6 -17.3°
